Location: Sungai Igah
(2.7333°N, 114.2500°E)
Time: 21:09:49
(UTC+00:00)

Cosmos 1484 Rocket - Pass Details

Date: 14 June 2021
Orbit: 505 x 558 km, 97.4° (Epoch: 25 July)

Event Time Altitude Azimuth Distance (km) Brightness Sun altitude
Rises 20:19:00 0° 14° (NNE) 2,591 6.8 -27.1°
Reaches altitude 10° 20:21:04 10° 16° (NNE) 1,712 5.8 -26.6°
Enters shadow 20:23:32 40° 26° (NNE) 754 3.8 -26.1°
